Epoch = 2006 Apr. 15.0 TT T = 2006 Apr. 5.05621 TT Peri. = 213.83319 e = 0.4137037 Node = 126.45820 2000.0 q = 2.3802828 AU Incl. = 1.08569 a = 4.0598636 AU n = 0.12048609 P = 8.18 years
m1 = 14.0 + 5 log d + 10.0 log r